Flag for U.S.A. Weather past 2 weeks in Rockford, Illinois, U.S.A.

Now
67 °F

Overcast.


Feels Like: 67 °F
Forecast: 66 / 84 °F
Wind: 5 mph from Southwest

Location: Greater Rockford Airport

Current Time: Jul 26, 2014 at 7:13:08 AM

Latest Report: Jul 26, 2014 at 5:54 AM


Visibility: 10 mi

Pressure: 29.85 "Hg

Humidity: 81%

Dew point: 61 °F

Location of RockfordLocation

Historic Weather in Rockford — Graph

°F

Rockford temperature yesterday

Maximum temperature yesterday: 71 °F (at 4:54 PM)
Minimum temperature yesterday: 57 °F (at 2:54 AM)
Average temperature yesterday: 65 °F

Past Weeks' High & Low Weather Summary

 TemperatureHumidityPressure
High86 °F (Jul 22, 6:54 PM)94% (Jul 13, 5:54 AM)30.21 "Hg (Jul 13, 5:54 AM)
Low52 °F (Jul 16, 5:54 AM)35% (Jul 14, 12:54 PM)29.82 "Hg (Jul 12, 9:54 PM)
Average69 °F69%30.03 "Hg
* Reported Jul 11 5:54 AM — Jul 26 5:54 AM, Rockford, Weather by CustomWeather, © 2014

Note: Actual official high and low records may vary slightly from our data, if they occured in-between our weather recording intervals... More about our weather records

Advertising

Rockford weather history for previous 24 hours

 ConditionsComfort  
Time TempWeatherWind HumidityBarometerVisibility
5:54 AM
Jul 26
67 °FOvercast.5 mph81%29.85 "Hg10 mi
4:54 AM67 °FLight rain. Overcast.6 mph79%29.85 "Hg10 mi
3:54 AM68 °FOvercast.6 mph73%29.87 "Hg10 mi
2:54 AM68 °FOvercast.9 mph73%29.88 "Hg10 mi
1:54 AM67 °FOvercast.8 mph76%29.90 "Hg10 mi
12:54 AM68 °FOvercast.7 mph73%29.92 "Hg10 mi
11:54 PM
Jul 25
68 °FOvercast.6 mph76%29.92 "Hg10 mi
10:54 PM67 °FOvercast.7 mph79%29.92 "Hg10 mi
9:54 PM67 °FOvercast.8 mph76%29.93 "Hg10 mi
8:54 PM68 °FMostly cloudy.9 mph73%29.93 "Hg10 mi
7:54 PM68 °FOvercast.13 mph73%29.92 "Hg10 mi
6:54 PM70 °FOvercast.14 mph71%29.92 "Hg10 mi
5:54 PM71 °FMore clouds than sun.10 mph68%29.93 "Hg10 mi
4:54 PM71 °FOvercast.12 mph68%29.93 "Hg10 mi
3:54 PM69 °FMostly cloudy.10 mph73%29.94 "Hg10 mi
2:54 PM69 °FOvercast.9 mph70%29.96 "Hg10 mi
1:54 PM69 °FMostly cloudy.9 mph70%29.97 "Hg10 mi
12:56 PM69 °FBroken clouds.12 mph68%29.95 "Hg10 mi
11:54 AM70 °FMore clouds than sun.21 mph64%29.95 "Hg10 mi
10:54 AM68 °FMostly cloudy.18 mph70%30.01 "Hg10 mi
9:54 AM65 °FMostly cloudy.9 mph76%30.03 "Hg10 mi
8:54 AM62 °FMostly cloudy.7 mph83%30.01 "Hg10 mi
7:54 AM60 °FLight rain. More clouds than sun.6 mph83%30.09 "Hg10 mi
Weather by CustomWeather, © 2014

See weather overviewHow to use our weather pages